Location: Sternwarte_Laufen
(47.9344°N, 12.9346°E)
Time: 16:48:56
(UTC+02:00)

ISS - Pass Details

Date: 12 July 2018
Orbit: 402 x 408 km, 51.6° (Epoch: 20 July)

Event Time Altitude Azimuth Distance (km) Brightness Sun altitude
Exits shadow 04:20:59 - 276° (W) 2,221 -0.4 -8.5°
Reaches altitude 10° 04:22:52 10° 283° (WNW) 1,471 -1.3 -8.3°
Maximum altitude 04:26:02 42° 356° (N) 596 -2.6 -7.9°
Drops below altitude 10° 04:29:12 10° 69° (ENE) 1,475 0.2 -7.5°
Sets 04:31:22 0° 77° (ENE) 2,337 1.2 -7.3°
